sat.trackr.live / text

‹ back to catalog

STARLINK-32002

NORAD 60200 · 2024-124T

PAYLOAD ACTIVE UNKNOWN

§ Identity

Operator
Country
US
Launch date
2024-07-03
Launch site
AFETR
Launch vehicle
Mass (kg)
RCS (m²)

Purposes: comms

External: N2YO · Heavens-Above · Gunter

§ Orbital elements

Epoch: 2026-05-25T04:54:19.321920Z

Period
94.01 min
Inclination
53.1613°
Eccentricity
0.0001076
Mean motion
15.31700877 rev/d
Perigee alt
470.0 km
Apogee alt
471.5 km
Semi-major
6,848.9 km
B*
2.4652e-5
RAAN
326.8655°
Arg perigee
93.0132°
Mean anomaly
267.0992°
Rev number
10,601

§ Raw data

STARLINK-320021 60200U 24124T   26145.20439030  .00000400  00000+0  24652-4 0  99962 60200  53.1613 326.8655 0001076  93.0132 267.0992 15.31700877106018

JSON: /api/v1/satellites/60200 · /tle

For live sub-satellite position, see the globe view (requires WebGL).

§ Visibility from observer

Set your observer location to see the next 7 days of passes ≥ 10°. The values pass through the URL so the page stays shareable.

No JS? Fill the form by hand. The geolocation button needs JavaScript.